Stations météo

réclame
Mon MeteoGroup
Umeå Flygplats, Suède (2286): Température de l'air & dewpoint: 17.09.2018 03:00:00 - 23.09.2018 03:00:00 (CEST)Umeå Flygplats, Suède (2286): Vitesse du vent: 17.09.2018 03:00:00 - 23.09.2018 03:00:00 (CEST)Umeå Flygplats, Suède (2286): Direction du vent: 17.09.2018 03:00:00 - 23.09.2018 03:00:00 (CEST)Umeå Flygplats, Suède (2286): reduced air pressure: 17.09.2018 03:00:00 - 23.09.2018 03:00:00 (CEST)Umeå Flygplats, Suède (2286): visibility: 17.09.2018 03:00:00 - 23.09.2018 03:00:00 (CEST)
Date & Time tt [°C] td [°C] ff [km/h] ff [knt] dd ppp [hPa] vv [km]
23.09.2018 03:00:00 10,0 5,0 13 7 SW - 10
23.09.2018 02:00:00 10,2 4,6 13 7 SW 986,3 10
23.09.2018 01:00:00 10,4 4,5 11 6 SW 986,0 10
23.09.2018 00:00:00 11,2 5,3 15 8 SSW 985,6 10
22.09.2018 23:00:00 11,6 4,6 18 10 SW 985,1 10
22.09.2018 22:00:00 11,8 6,1 16 9 SSW 984,6 10
22.09.2018 21:00:00 12,5 5,6 24 13 SSW 984,3 10
22.09.2018 20:00:00 12,2 5,6 21 11 SSW 984,1 10
22.09.2018 19:00:00 12,0 6,7 18 10 SSW 983,8 10
22.09.2018 18:00:00 12,7 6,5 21 11 SSW 983,6 10
22.09.2018 17:00:00 13,2 8,3 22 12 SSW 983,3 10
22.09.2018 16:00:00 13,3 7,5 21 11 SSW 982,7 10
22.09.2018 15:00:00 12,2 7,7 24 13 WSW 981,7 10
22.09.2018 14:00:00 11,9 9,1 22 12 SSW 980,6 10
22.09.2018 13:00:00 11,5 9,9 18 10 SSW 979,5 10
22.09.2018 12:00:00 11,0 10,1 28 15 SSW 979,3 10
22.09.2018 11:00:00 11,0 9,9 37 20 S 979,5 10
22.09.2018 10:00:00 10,3 9,5 34 18 S 979,9 10
22.09.2018 09:00:00 10,6 9,4 31 17 S 980,7 10
22.09.2018 08:00:00 10,6 9,2 28 15 S 981,5 8
22.09.2018 07:00:00 12,1 8,6 31 17 S 982,2 10
22.09.2018 06:00:00 12,1 9,8 28 15 S 982,8 10
22.09.2018 05:00:00 12,6 11,5 22 12 S 983,3 10
22.09.2018 04:00:00 12,7 11,9 28 15 S 983,7 10
22.09.2018 03:00:00 13,0 11,4 21 11 SSE 984,3 10
22.09.2018 02:00:00 13,2 12,6 21 11 S 985,3 10
22.09.2018 01:00:00 13,8 13,0 22 12 S 986,5 10
22.09.2018 00:00:00 14,4 13,1 18 10 S 987,0 10
21.09.2018 23:00:00 14,4 13,4 16 9 S 987,1 10
21.09.2018 22:00:00 14,9 13,8 22 12 S 988,3 10
21.09.2018 21:00:00 15,4 14,3 18 10 SSE 989,1 10
21.09.2018 20:00:00 14,3 13,8 13 7 SE 990,5 10
21.09.2018 19:00:00 14,1 13,8 18 10 SE 991,7 10
21.09.2018 18:00:00 12,8 12,6 18 10 SE 992,9 10
21.09.2018 17:00:00 11,7 11,4 18 10 SE 994,8 5
21.09.2018 16:00:00 11,1 10,3 13 7 SSE 996,6 10
21.09.2018 15:00:00 12,2 8,5 22 12 S 997,7 10
21.09.2018 14:00:00 13,2 8,5 24 13 SSW 998,5 10
21.09.2018 13:00:00 12,9 8,4 26 14 SSW 998,8 10
21.09.2018 12:00:00 13,0 7,0 24 13 S 999,0 10
21.09.2018 11:00:00 13,5 6,1 18 10 SW 999,1 10
21.09.2018 10:00:00 12,4 6,9 24 13 SSW 999,4 10
21.09.2018 09:00:00 11,0 6,3 15 8 SW 999,4 10
21.09.2018 08:00:00 10,3 6,1 15 8 SW 998,8 10
21.09.2018 07:00:00 10,2 5,6 16 9 SSW 998,9 10
21.09.2018 06:00:00 9,3 5,3 15 8 S 998,7 10
21.09.2018 05:00:00 9,8 4,4 11 6 SSW 998,9 10
21.09.2018 04:00:00 9,2 4,0 13 7 SSW 998,9 10
21.09.2018 03:00:00 8,7 3,9 11 6 SSW 998,7 10
21.09.2018 02:00:00 9,7 4,5 11 6 SSW 998,2 10
21.09.2018 01:00:00 8,7 4,1 9 5 S 997,8 10
21.09.2018 00:00:00 9,5 3,9 11 6 SSW 997,1 10
20.09.2018 23:00:00 11,5 4,7 15 8 WSW 996,8 10
20.09.2018 22:00:00 13,0 5,4 16 9 SSW 995,6 10
20.09.2018 21:00:00 12,5 6,5 16 9 SSW 995,1 10
20.09.2018 20:00:00 12,2 7,5 13 7 S 994,7 10
20.09.2018 19:00:00 13,0 7,7 13 7 S 994,5 10
20.09.2018 18:00:00 14,4 8,1 18 10 SSW 994,0 10
20.09.2018 17:00:00 15,4 8,9 26 14 SSW 993,7 10
20.09.2018 16:00:00 15,8 8,8 31 17 SSW 993,2 10
20.09.2018 15:00:00 15,9 9,3 31 17 SSW 993,1 10
20.09.2018 14:00:00 15,9 9,6 34 18 SSW 992,9 10
20.09.2018 13:00:00 16,4 10,3 35 19 SSW 992,4 10
20.09.2018 12:00:00 16,2 10,1 35 19 SSW 991,9 10
20.09.2018 11:00:00 16,5 10,4 29 16 SSW 991,8 10
20.09.2018 10:00:00 15,8 12,4 28 15 SSW 991,8 10
20.09.2018 09:00:00 15,2 13,2 37 20 SSW 992,0 10
20.09.2018 08:00:00 15,2 13,4 28 15 SSW 992,2 10
20.09.2018 07:00:00 14,7 13,6 26 14 S 992,8 10
20.09.2018 06:00:00 14,4 13,4 24 13 S 994,0 10
20.09.2018 05:00:00 14,0 13,4 21 11 S 995,4 10
20.09.2018 04:00:00 13,8 13,3 15 8 S 996,4 10
20.09.2018 03:00:00 10,9 10,9 11 6 S 997,3 10
20.09.2018 02:00:00 6,7 6,7 2 1 - 998,2 0,2
20.09.2018 01:00:00 7,3 7,3 2 1 - 998,9 0,1
20.09.2018 00:00:00 9,0 9,0 4 2 WNW 999,2 0,1
19.09.2018 23:00:00 9,9 9,9 4 2 - 999,9 0,1
19.09.2018 22:00:00 8,9 8,9 0 0 N 1000,8 0,1
19.09.2018 21:00:00 9,9 9,7 4 2 NNW 1000,6 0,1
19.09.2018 20:00:00 12,2 11,9 5 3 ENE 1000,1 5
19.09.2018 19:00:00 14,2 13,6 8 4 N 1000,0 10
19.09.2018 18:00:00 15,2 13,4 5 3 SSE 999,6 10
19.09.2018 17:00:00 16,1 13,0 4 2 NNE 998,7 10
19.09.2018 16:00:00 15,6 12,7 13 7 WNW 998,9 10
19.09.2018 15:00:00 15,4 13,1 11 6 NNW 998,0 10
19.09.2018 14:00:00 15,5 13,5 11 6 NW 997,9 10
19.09.2018 13:00:00 15,4 13,9 8 4 WNW 997,5 10
19.09.2018 12:00:00 14,6 13,6 5 3 NW 996,9 10
19.09.2018 11:00:00 14,0 13,8 5 3 WNW 996,8 7
19.09.2018 10:00:00 13,5 13,5 0 0 N 996,7 8
19.09.2018 09:00:00 12,9 12,9 8 4 E 996,9 4,0
19.09.2018 08:00:00 12,8 12,8 11 6 ENE 996,9 2,6
19.09.2018 07:00:00 12,7 12,7 9 5 E 998,2 0,8
19.09.2018 06:00:00 12,3 12,3 8 4 ENE 998,0 0,5
19.09.2018 05:00:00 11,4 11,4 8 4 E 998,9 3,0
19.09.2018 04:00:00 11,2 11,2 4 2 - 999,7 10
19.09.2018 03:00:00 9,6 9,6 5 3 NNW 1000,6 5
19.09.2018 02:00:00 8,2 8,2 4 2 - 1001,3 10
19.09.2018 01:00:00 8,4 8,4 0 0 N 1001,6 10
19.09.2018 00:00:00 8,1 8,1 0 0 N 1002,3 10
18.09.2018 23:00:00 9,0 8,9 2 1 S 1002,3 10
18.09.2018 22:00:00 9,3 9,2 0 0 N 1002,8 10
18.09.2018 21:00:00 10,9 10,6 4 2 E 1003,3 10
18.09.2018 20:00:00 11,7 11,1 8 4 SSE 1002,8 10
18.09.2018 19:00:00 12,0 10,9 9 5 S 1003,3 10
18.09.2018 18:00:00 12,9 11,1 11 6 S 1002,9 10
18.09.2018 17:00:00 13,0 10,7 9 5 S 1003,2 10
18.09.2018 16:00:00 13,7 10,1 15 8 S 1003,6 10
18.09.2018 15:00:00 13,5 9,2 16 9 S 1004,2 10
18.09.2018 14:00:00 14,4 8,6 13 7 S 1004,3 10
18.09.2018 13:00:00 13,7 8,7 11 6 S 1004,6 10
18.09.2018 12:00:00 13,6 10,0 11 6 SSE 1005,0 10
18.09.2018 11:00:00 12,8 8,7 0 0 N 1005,5 10
18.09.2018 10:00:00 10,3 6,8 0 0 N 1005,9 10
18.09.2018 09:00:00 7,9 6,4 0 0 N 1006,2 10
18.09.2018 08:00:00 5,4 4,7 0 0 N 1006,5 10
18.09.2018 07:00:00 4,3 3,6 2 1 E 1006,6 10
18.09.2018 06:00:00 3,1 2,7 0 0 N 1007,1 10
18.09.2018 05:00:00 2,0 1,1 2 1 W 1007,3 10
18.09.2018 04:00:00 4,0 3,4 8 4 SW 1007,0 10
18.09.2018 03:00:00 4,0 3,3 9 5 SW 1007,1 10
18.09.2018 02:00:00 1,8 0,3 4 2 - 1006,5 10
18.09.2018 01:00:00 4,0 3,6 5 3 - 1006,6 10
18.09.2018 00:00:00 3,7 2,4 0 0 N 1006,2 10
17.09.2018 23:00:00 5,9 4,9 4 2 - 1005,8 10
17.09.2018 22:00:00 6,3 4,6 5 3 SSW 1005,3 10
17.09.2018 21:00:00 8,3 5,4 9 5 SW 1005,0 10
17.09.2018 20:00:00 8,0 5,2 9 5 WSW 1004,5 10
17.09.2018 19:00:00 8,6 6,2 8 4 W 1003,9 10
17.09.2018 18:00:00 13,1 8,6 0 0 N 1003,2 10
17.09.2018 17:00:00 12,5 8,4 5 3 - 1002,8 10
17.09.2018 16:00:00 12,2 8,3 9 5 WNW 1002,5 10
17.09.2018 15:00:00 11,7 9,4 5 3 W 1002,4 10
17.09.2018 14:00:00 10,6 8,9 9 5 WNW 1002,4 10
17.09.2018 13:00:00 10,3 8,7 4 2 - 1002,4 10
17.09.2018 12:00:00 9,4 8,8 8 4 NW 1002,2 10
17.09.2018 11:00:00 8,1 7,7 5 3 NW 1002,3 10
17.09.2018 10:00:00 7,8 7,5 5 3 NW 1002,3 10
17.09.2018 09:00:00 7,0 6,6 5 3 NNW 1002,1 10
17.09.2018 08:00:00 5,7 5,3 5 3 NW 1002,4 10
17.09.2018 07:00:00 5,2 4,6 5 3 NNW 1002,8 10
17.09.2018 06:00:00 4,1 3,5 8 4 NW 1003,3 10
17.09.2018 05:00:00 3,6 3,2 5 3 WNW 1003,7 10
17.09.2018 04:00:00 2,5 2,1 5 3 NW 1004,3 10
17.09.2018 03:00:00 1,9 1,3 0 0 N 1005,1 2,4

tt = Température de l'air
td = dewpoint
ff = Vitesse du vent
dd = Direction du vent
ppp = reduced air pressure
vv = visibility

stations d'obs. à proximité